Zurück zum Katalog

ARIANE 2 DEB

LostGTO
NORAD 42488·DEBRIS·🇫🇷 France

Gestartet Jan 27, 1989 von Guiana Space Centre

Loading…

TLE

VeraltetSource: Space-Track

Epoche: May 7, 2024, 21:08 UTC

1 42488U 89006CQ  24128.88091397 -.00000432  00000-0 -13503-1 0  9995
2 42488   9.1954 358.4626 7077688 246.6491  27.4569  2.22489392150061

Verfolge ARIANE 2 DEB in Echtzeit mit AllMySat

Download on the App Store